NKS980 KFLL-KMYR

Flight info

Callsign NKS980
Flight time 1h 18m
Altitude 37000
Route AGERS1 DUCEN Q87 JROSS
Aircraft A320/M-SDE3FGHIRWY/LB1

Departure

Time 2026-05-03 20:38
Airport Fort Lauderdale Hollywood International Airport (KFLL)

Arrival

Time 2026-05-03 21:56
Airport Myrtle Beach International Airport (KMYR)
Time Latitude Longitude Altitude Speed Heading
2026-05-03 20:15 26.06884 -80.14552 16 ft 0 kts 24°
2026-05-03 20:21 26.06882 -80.14553 16 ft 2 kts 24°
2026-05-03 20:22 26.06858 -80.14565 16 ft 4 kts 25°
2026-05-03 20:22 26.06837 -80.14575 17 ft 4 kts
2026-05-03 20:22 26.06822 -80.14566 17 ft 4 kts 284°
2026-05-03 20:22 26.06819 -80.14537 17 ft 4 kts 270°
2026-05-03 20:23 26.06819 -80.14535 17 ft 0 kts 270°
2026-05-03 20:26 26.06818 -80.14556 16 ft 7 kts 263°
2026-05-03 20:26 26.06779 -80.14593 15 ft 9 kts 213°
2026-05-03 20:26 26.06765 -80.14662 15 ft 10 kts 270°
2026-05-03 20:26 26.06765 -80.14750 15 ft 13 kts 270°
2026-05-03 20:27 26.06766 -80.14858 15 ft 15 kts 270°
2026-05-03 20:27 26.06767 -80.14982 16 ft 17 kts 271°
2026-05-03 20:27 26.06765 -80.15107 16 ft 12 kts 259°
2026-05-03 20:27 26.06712 -80.15143 20 ft 7 kts 213°
2026-05-03 20:28 26.06695 -80.15197 21 ft 11 kts 270°
2026-05-03 20:28 26.06696 -80.15316 16 ft 19 kts 270°
2026-05-03 20:28 26.06696 -80.15470 16 ft 21 kts 270°
2026-05-03 20:28 26.06697 -80.15636 16 ft 21 kts 270°
2026-05-03 20:29 26.06698 -80.15738 16 ft 5 kts 270°
2026-05-03 20:29 26.06698 -80.15741 16 ft 0 kts 270°
2026-05-03 20:31 26.06698 -80.15748 16 ft 2 kts 270°
2026-05-03 20:32 26.06698 -80.15782 16 ft 6 kts 269°
2026-05-03 20:32 26.06684 -80.15815 18 ft 0 kts 218°
2026-05-03 20:34 26.06683 -80.15815 18 ft 1 kts 216°
2026-05-03 20:34 26.06638 -80.15824 17 ft 10 kts 180°
2026-05-03 20:35 26.06589 -80.15805 18 ft 7 kts 105°
2026-05-03 20:35 26.06589 -80.15781 19 ft 0 kts 90°
2026-05-03 20:37 26.06589 -80.15775 19 ft 5 kts 90°
2026-05-03 20:37 26.06588 -80.15507 23 ft 71 kts 90°
2026-05-03 20:37 26.06582 -80.14708 30 ft 131 kts 90°
2026-05-03 20:38 26.06568 -80.13567 320 ft 153 kts 88°
2026-05-03 20:38 26.06560 -80.12408 995 ft 153 kts 85°
2026-05-03 20:38 26.06640 -80.11199 1542 ft 160 kts 71°
2026-05-03 20:38 26.07141 -80.10046 1885 ft 176 kts 51°
2026-05-03 20:39 26.07877 -80.08860 2180 ft 197 kts 54°
2026-05-03 20:39 26.08752 -80.07576 2458 ft 220 kts 40°
2026-05-03 20:39 26.10124 -80.06684 2824 ft 241 kts 18°
2026-05-03 20:39 26.11784 -80.06027 3317 ft 262 kts 18°
2026-05-03 20:40 26.13538 -80.05329 3839 ft 272 kts 17°
2026-05-03 20:40 26.15375 -80.04866 4008 ft 271 kts 358°
2026-05-03 20:40 26.17183 -80.05235 4009 ft 261 kts 338°
2026-05-03 20:40 26.18914 -80.05917 4016 ft 265 kts 338°
2026-05-03 20:41 26.20607 -80.06672 4017 ft 264 kts 328°
2026-05-03 20:41 26.22071 -80.07895 4019 ft 261 kts 312°
2026-05-03 20:41 26.23139 -80.09501 4021 ft 260 kts 296°
2026-05-03 20:41 26.23837 -80.11344 4026 ft 260 kts 290°
2026-05-03 20:42 26.24503 -80.13247 4251 ft 268 kts 291°
2026-05-03 20:42 26.25416 -80.15064 5389 ft 269 kts 306°
2026-05-03 20:42 26.26748 -80.16524 6442 ft 271 kts 322°
2026-05-03 20:42 26.28409 -80.17564 7265 ft 277 kts 330°
2026-05-03 20:43 26.30136 -80.18533 8125 ft 279 kts 329°
2026-05-03 20:43 26.31888 -80.19515 8981 ft 282 kts 329°
2026-05-03 20:43 26.33623 -80.20489 9827 ft 285 kts 328°
2026-05-03 20:43 26.35419 -80.21503 10381 ft 298 kts 328°
2026-05-03 20:44 26.37402 -80.22478 10609 ft 325 kts 338°
2026-05-03 20:44 26.39662 -80.22988 11089 ft 341 kts 350°
2026-05-03 20:44 26.42052 -80.23220 11755 ft 345 kts 350°
2026-05-03 20:44 26.44455 -80.23462 12427 ft 350 kts 350°
2026-05-03 20:45 26.46897 -80.23718 12898 ft 354 kts 349°
2026-05-03 20:45 26.49353 -80.23978 13003 ft 354 kts 349°
2026-05-03 20:45 26.51819 -80.24236 13143 ft 358 kts 350°
2026-05-03 20:45 26.54309 -80.24492 13889 ft 359 kts 349°
2026-05-03 20:46 26.56774 -80.24752 14488 ft 361 kts 348°
2026-05-03 20:46 26.59278 -80.25097 15056 ft 363 kts 346°
2026-05-03 20:46 26.61778 -80.25510 15631 ft 366 kts 345°
2026-05-03 20:46 26.64311 -80.25960 16208 ft 370 kts 345°
2026-05-03 20:47 26.66870 -80.26421 16812 ft 374 kts 345°
2026-05-03 20:47 26.69444 -80.26879 17389 ft 377 kts 343°
2026-05-03 20:47 26.71970 -80.27626 17918 ft 373 kts 333°
2026-05-03 20:47 26.74397 -80.28649 18458 ft 376 kts 333°
2026-05-03 20:48 26.76864 -80.29687 18958 ft 380 kts 332°
2026-05-03 20:48 26.79352 -80.30730 19451 ft 383 kts 332°
2026-05-03 20:48 26.81854 -80.31775 19953 ft 386 kts 332°
2026-05-03 20:48 26.83565 -80.32489 20289 ft 388 kts 332°
2026-05-03 20:49 26.86937 -80.33898 20942 ft 393 kts 332°
2026-05-03 20:49 26.89503 -80.34971 21482 ft 396 kts 332°
2026-05-03 20:49 26.92106 -80.36060 21902 ft 402 kts 332°
2026-05-03 20:49 26.94733 -80.37160 22403 ft 404 kts 332°
2026-05-03 20:50 26.96496 -80.37888 22726 ft 406 kts 332°
2026-05-03 20:50 26.99202 -80.38988 23186 ft 410 kts 332°
2026-05-03 20:50 27.01863 -80.40055 23627 ft 413 kts 332°
2026-05-03 20:50 27.04583 -80.41142 23998 ft 416 kts 332°
2026-05-03 20:51 27.07318 -80.42234 24379 ft 418 kts 332°
2026-05-03 20:51 27.10066 -80.43340 24778 ft 421 kts 331°
2026-05-03 20:51 27.12805 -80.44495 25159 ft 422 kts 330°
2026-05-03 20:51 27.15548 -80.45700 25572 ft 424 kts 329°
2026-05-03 20:52 27.18287 -80.46934 25971 ft 425 kts 329°
2026-05-03 20:52 27.21035 -80.48178 26363 ft 428 kts 329°
2026-05-03 20:52 27.23807 -80.49429 26739 ft 430 kts 329°
2026-05-03 20:52 27.26597 -80.50677 27115 ft 433 kts 329°
2026-05-03 20:53 27.29406 -80.51926 27504 ft 436 kts 329°
2026-05-03 20:53 27.32251 -80.53183 27903 ft 439 kts 329°
2026-05-03 20:53 27.35102 -80.54439 28285 ft 441 kts 329°
2026-05-03 20:53 27.37977 -80.55692 28671 ft 444 kts 330°
2026-05-03 20:54 27.40892 -80.56897 29054 ft 448 kts 331°
2026-05-03 20:54 27.46830 -80.59221 29819 ft 454 kts 332°
2026-05-03 20:54 27.49829 -80.60379 30175 ft 457 kts 332°
2026-05-03 20:55 27.52835 -80.61547 30488 ft 459 kts 332°
2026-05-03 20:55 27.55863 -80.62734 30808 ft 460 kts 331°
2026-05-03 20:55 27.58888 -80.63932 31138 ft 461 kts 330°
2026-05-03 20:55 27.61916 -80.65140 31479 ft 463 kts 330°
2026-05-03 20:56 27.64953 -80.66353 31921 ft 461 kts 330°
2026-05-03 20:56 27.67968 -80.67555 32421 ft 459 kts 329°
2026-05-03 20:56 27.70964 -80.68752 32932 ft 456 kts 329°
2026-05-03 20:56 27.73954 -80.69947 33436 ft 454 kts 329°
2026-05-03 20:57 27.76916 -80.71133 33996 ft 451 kts 328°
2026-05-03 20:57 27.79833 -80.72299 34441 ft 449 kts 328°
2026-05-03 20:57 27.82774 -80.73473 34834 ft 448 kts 328°
2026-05-03 20:57 27.85711 -80.74648 35188 ft 447 kts 328°
2026-05-03 20:58 27.88641 -80.75826 35533 ft 447 kts 327°
2026-05-03 20:58 27.91556 -80.76999 35847 ft 447 kts 327°
2026-05-03 20:58 27.94486 -80.78178 36170 ft 447 kts 327°
2026-05-03 20:58 27.97431 -80.79359 36499 ft 447 kts 327°
2026-05-03 20:59 28.00355 -80.80529 36808 ft 447 kts 327°
2026-05-03 20:59 28.03290 -80.81705 37027 ft 448 kts 327°
2026-05-03 20:59 28.06223 -80.82883 37136 ft 447 kts 327°
2026-05-03 20:59 28.09154 -80.84062 37076 ft 447 kts 327°
2026-05-03 21:00 28.14021 -80.86023 37085 ft 447 kts 327°
2026-05-03 21:00 28.20864 -80.88785 37090 ft 447 kts 327°
2026-05-03 21:01 28.26721 -80.91153 37110 ft 447 kts 327°
2026-05-03 21:01 28.32580 -80.93518 37103 ft 447 kts 327°
2026-05-03 21:02 28.38451 -80.95893 37130 ft 448 kts 327°
2026-05-03 21:02 28.44320 -80.98271 37120 ft 448 kts 327°
2026-05-03 21:03 28.50209 -81.00664 37118 ft 449 kts 327°
2026-05-03 21:03 28.56051 -81.03040 37116 ft 449 kts 327°
2026-05-03 21:04 28.61945 -81.05427 37118 ft 449 kts 327°
2026-05-03 21:04 28.67833 -81.07816 37140 ft 450 kts 326°
2026-05-03 21:05 28.73704 -81.10201 37080 ft 447 kts 326°
2026-05-03 21:05 28.79568 -81.12599 37080 ft 448 kts 326°
2026-05-03 21:06 28.85451 -81.15007 37110 ft 449 kts 326°
2026-05-03 21:06 28.91344 -81.17418 37119 ft 450 kts 326°
2026-05-03 21:07 28.97236 -81.19832 37147 ft 450 kts 326°
2026-05-03 21:07 29.03140 -81.22254 37112 ft 449 kts 326°
2026-05-03 21:08 29.09029 -81.24672 37110 ft 450 kts 326°
2026-05-03 21:08 29.14908 -81.27083 37113 ft 450 kts 326°
2026-05-03 21:09 29.20785 -81.29503 37133 ft 450 kts 326°
2026-05-03 21:09 29.26620 -81.31817 37184 ft 460 kts 332°
2026-05-03 21:10 29.29828 -81.32451 37110 ft 478 kts 343°
2026-05-03 21:10 29.33183 -81.32654 37128 ft 481 kts 344°
2026-05-03 21:10 29.39837 -81.33030 37129 ft 482 kts 344°
2026-05-03 21:11 29.46475 -81.33413 37132 ft 483 kts 344°
2026-05-03 21:11 29.53116 -81.33800 37137 ft 483 kts 344°
2026-05-03 21:12 29.59842 -81.34204 37154 ft 483 kts 344°
2026-05-03 21:12 29.66564 -81.34611 37152 ft 483 kts 344°
2026-05-03 21:13 29.73283 -81.35009 37149 ft 484 kts 344°
2026-05-03 21:13 29.80010 -81.35403 37149 ft 484 kts 344°
2026-05-03 21:14 29.86705 -81.35799 37143 ft 484 kts 344°
2026-05-03 21:14 29.93385 -81.36198 37136 ft 483 kts 344°
2026-05-03 21:15 30.00036 -81.36590 37134 ft 484 kts 344°
2026-05-03 21:15 30.06768 -81.36989 37141 ft 484 kts 344°
2026-05-03 21:16 30.13499 -81.37395 37166 ft 484 kts 344°
2026-05-03 21:16 30.20209 -81.37793 37138 ft 482 kts 344°
2026-05-03 21:17 30.25792 -81.38123 37133 ft 483 kts 344°
2026-05-03 21:17 30.33622 -81.38596 37133 ft 483 kts 344°
2026-05-03 21:18 30.40336 -81.39007 37136 ft 483 kts 344°
2026-05-03 21:18 30.47060 -81.39413 37149 ft 484 kts 344°
2026-05-03 21:19 30.53797 -81.39776 37155 ft 485 kts 345°
2026-05-03 21:19 30.60542 -81.40118 37156 ft 485 kts 345°
2026-05-03 21:20 30.67286 -81.40461 37184 ft 485 kts 345°
2026-05-03 21:20 30.74019 -81.40817 37154 ft 483 kts 345°
2026-05-03 21:21 30.80693 -81.41176 37153 ft 483 kts 345°
2026-05-03 21:21 30.87412 -81.41541 37157 ft 484 kts 345°
2026-05-03 21:22 30.94128 -81.41898 37150 ft 484 kts 345°
2026-05-03 21:22 31.00876 -81.42256 37170 ft 484 kts 345°
2026-05-03 21:23 31.07609 -81.42616 37155 ft 484 kts 345°
2026-05-03 21:23 31.14336 -81.42978 37150 ft 484 kts 345°
2026-05-03 21:24 31.21062 -81.43314 37158 ft 488 kts 348°
2026-05-03 21:24 31.24508 -81.42992 37207 ft 505 kts 359°
2026-05-03 21:24 31.27911 -81.41989 37122 ft 518 kts 10°
2026-05-03 21:25 31.34603 -81.38469 37118 ft 525 kts 16°
2026-05-03 21:25 31.41240 -81.34865 37125 ft 526 kts 16°
2026-05-03 21:26 31.47855 -81.31293 37133 ft 527 kts 16°
2026-05-03 21:26 31.54513 -81.27684 37156 ft 528 kts 16°
2026-05-03 21:27 31.61142 -81.24064 37148 ft 528 kts 16°
2026-05-03 21:27 31.67784 -81.20431 37138 ft 528 kts 16°
2026-05-03 21:28 31.74382 -81.16831 37128 ft 529 kts 16°
2026-05-03 21:28 31.77724 -81.15004 36992 ft 529 kts 16°
2026-05-03 21:28 31.81050 -81.13181 36730 ft 526 kts 16°
2026-05-03 21:29 31.84360 -81.11364 36472 ft 525 kts 16°
2026-05-03 21:29 31.87665 -81.09547 36212 ft 524 kts 16°
2026-05-03 21:29 31.90968 -81.07731 35966 ft 522 kts 16°
2026-05-03 21:29 31.94126 -81.06000 35729 ft 521 kts 16°
2026-05-03 21:30 31.97414 -81.04200 35489 ft 520 kts 17°
2026-05-03 21:30 32.00684 -81.02403 35246 ft 519 kts 17°
2026-05-03 21:30 32.03948 -81.00593 35077 ft 518 kts 17°
2026-05-03 21:30 32.07188 -80.98778 35101 ft 515 kts 17°
2026-05-03 21:31 32.13666 -80.95131 35109 ft 515 kts 17°
2026-05-03 21:31 32.20090 -80.91517 35143 ft 515 kts 17°
2026-05-03 21:32 32.26584 -80.87877 35144 ft 517 kts 17°
2026-05-03 21:32 32.33072 -80.84232 35136 ft 515 kts 17°
2026-05-03 21:33 32.39525 -80.80605 35138 ft 514 kts 17°
2026-05-03 21:33 32.44914 -80.77567 35138 ft 514 kts 17°
2026-05-03 21:34 32.51371 -80.73920 35139 ft 515 kts 17°
2026-05-03 21:34 32.57833 -80.70261 35129 ft 514 kts 17°
2026-05-03 21:35 32.64283 -80.66605 35117 ft 514 kts 17°
2026-05-03 21:35 32.67467 -80.64632 34876 ft 520 kts 24°
2026-05-03 21:35 32.70425 -80.62110 34640 ft 527 kts 34°
2026-05-03 21:36 32.73049 -80.59061 34400 ft 531 kts 45°
2026-05-03 21:36 32.75287 -80.55565 34118 ft 531 kts 52°
2026-05-03 21:36 32.77381 -80.51964 33504 ft 529 kts 52°
2026-05-03 21:36 32.79463 -80.48377 32971 ft 526 kts 52°
2026-05-03 21:37 32.81537 -80.44802 32405 ft 525 kts 52°
2026-05-03 21:37 32.83582 -80.41285 31881 ft 522 kts 52°
2026-05-03 21:37 32.85636 -80.37749 31316 ft 519 kts 52°
2026-05-03 21:37 32.87706 -80.34176 30765 ft 517 kts 52°
2026-05-03 21:38 32.89715 -80.30702 30217 ft 514 kts 52°
2026-05-03 21:38 32.91736 -80.27206 29623 ft 510 kts 52°
2026-05-03 21:38 32.93739 -80.23738 29094 ft 505 kts 52°
2026-05-03 21:38 32.95716 -80.20310 28573 ft 499 kts 52°
2026-05-03 21:39 32.97671 -80.16916 28047 ft 494 kts 52°
2026-05-03 21:39 32.99602 -80.13559 27556 ft 489 kts 52°
2026-05-03 21:39 33.01511 -80.10244 27067 ft 484 kts 52°
2026-05-03 21:39 33.03403 -80.06953 26587 ft 479 kts 52°
2026-05-03 21:40 33.05279 -80.03682 26112 ft 474 kts 52°
2026-05-03 21:40 33.07127 -80.00460 25643 ft 470 kts 52°
2026-05-03 21:40 33.08969 -79.97247 25164 ft 466 kts 52°
2026-05-03 21:40 33.10786 -79.94074 24703 ft 463 kts 52°
2026-05-03 21:41 33.12595 -79.90912 24221 ft 460 kts 52°
2026-05-03 21:41 33.14389 -79.87778 23829 ft 454 kts 53°
2026-05-03 21:41 33.16169 -79.84665 23298 ft 451 kts 53°
2026-05-03 21:41 33.17923 -79.81587 22767 ft 448 kts 53°
2026-05-03 21:42 33.19669 -79.78515 22350 ft 442 kts 53°
2026-05-03 21:42 33.21399 -79.75473 21802 ft 440 kts 53°
2026-05-03 21:42 33.23105 -79.72480 21396 ft 434 kts 53°
2026-05-03 21:42 33.24805 -79.69503 20902 ft 431 kts 53°
2026-05-03 21:43 33.26464 -79.66598 20496 ft 426 kts 53°
2026-05-03 21:43 33.28121 -79.63686 20065 ft 421 kts 53°
2026-05-03 21:43 33.29758 -79.60803 19618 ft 417 kts 53°
2026-05-03 21:43 33.31382 -79.57942 19163 ft 413 kts 53°
2026-05-03 21:44 33.32986 -79.55115 18712 ft 409 kts 53°
2026-05-03 21:44 33.34579 -79.52304 18231 ft 406 kts 53°
2026-05-03 21:44 33.36153 -79.49522 17729 ft 402 kts 53°
2026-05-03 21:44 33.37712 -79.46765 17228 ft 398 kts 53°
2026-05-03 21:45 33.39256 -79.44032 16762 ft 394 kts 53°
2026-05-03 21:45 33.40786 -79.41322 16281 ft 391 kts 53°
2026-05-03 21:45 33.42286 -79.38659 16007 ft 376 kts 53°
2026-05-03 21:45 33.43720 -79.36108 15520 ft 363 kts 53°
2026-05-03 21:46 33.45115 -79.33628 14882 ft 356 kts 53°
2026-05-03 21:46 33.46492 -79.31182 14241 ft 351 kts 53°
2026-05-03 21:46 33.47848 -79.28780 13572 ft 346 kts 53°
2026-05-03 21:46 33.49169 -79.26441 13004 ft 344 kts 53°
2026-05-03 21:47 33.50507 -79.24063 12686 ft 339 kts 53°
2026-05-03 21:47 33.51817 -79.21730 12338 ft 336 kts 52°
2026-05-03 21:47 33.53114 -79.19423 11985 ft 333 kts 52°
2026-05-03 21:47 33.54395 -79.17139 11395 ft 327 kts 52°
2026-05-03 21:48 33.55653 -79.14892 10744 ft 323 kts 52°
2026-05-03 21:48 33.56897 -79.12665 10153 ft 319 kts 52°
2026-05-03 21:48 33.58101 -79.10504 9792 ft 305 kts 52°
2026-05-03 21:48 33.59258 -79.08429 9495 ft 290 kts 52°
2026-05-03 21:49 33.60341 -79.06488 9338 ft 271 kts 52°
2026-05-03 21:49 33.61356 -79.04667 9209 ft 254 kts 52°
2026-05-03 21:49 33.62317 -79.02946 8950 ft 244 kts 52°
2026-05-03 21:49 33.63254 -79.01276 8558 ft 239 kts 50°
2026-05-03 21:50 33.64412 -78.99943 8129 ft 225 kts 20°
2026-05-03 21:50 33.65872 -78.99560 7707 ft 212 kts 355°
2026-05-03 21:50 33.67311 -78.99620 7278 ft 210 kts 352°
2026-05-03 21:50 33.68769 -78.99747 6857 ft 208 kts 351°
2026-05-03 21:51 33.70202 -78.99885 6461 ft 205 kts 351°
2026-05-03 21:51 33.71610 -79.00020 5896 ft 202 kts 351°
2026-05-03 21:51 33.73015 -79.00163 5181 ft 204 kts 352°
2026-05-03 21:51 33.74437 -79.00348 4483 ft 207 kts 349°
2026-05-03 21:52 33.75846 -79.00651 3838 ft 206 kts 346°
2026-05-03 21:52 33.77248 -79.00987 3209 ft 205 kts 348°
2026-05-03 21:52 33.78612 -79.00844 2849 ft 195 kts 24°
2026-05-03 21:52 33.79606 -78.99773 2416 ft 195 kts 59°
2026-05-03 21:53 33.79960 -78.98201 2223 ft 200 kts 92°
2026-05-03 21:53 33.79562 -78.96662 2048 ft 186 kts 126°
2026-05-03 21:53 33.78651 -78.95689 1859 ft 170 kts 156°
2026-05-03 21:53 33.77573 -78.95277 1698 ft 158 kts 167°
2026-05-03 21:54 33.76540 -78.94990 1521 ft 148 kts 171°
2026-05-03 21:54 33.75548 -78.94733 1321 ft 144 kts 172°
2026-05-03 21:54 33.74577 -78.94486 1117 ft 141 kts 172°
2026-05-03 21:54 33.73624 -78.94246 947 ft 135 kts 172°
2026-05-03 21:55 33.72714 -78.94017 759 ft 132 kts 169°
2026-05-03 21:55 33.71817 -78.93793 578 ft 130 kts 168°
2026-05-03 21:55 33.70936 -78.93566 383 ft 129 kts 169°
2026-05-03 21:55 33.70060 -78.93349 232 ft 129 kts 168°
2026-05-03 21:56 33.69186 -78.93135 53 ft 128 kts 168°
2026-05-03 21:56 33.68392 -78.92938 32 ft 98 kts 168°
2026-05-03 21:56 33.67895 -78.92813 33 ft 48 kts 168°
2026-05-03 21:56 33.67664 -78.92752 32 ft 29 kts 160°
2026-05-03 21:57 33.67522 -78.92623 32 ft 16 kts 137°
2026-05-03 21:57 33.67475 -78.92539 32 ft 11 kts 80°
2026-05-03 21:57 33.67548 -78.92525 32 ft 13 kts 348°
2026-05-03 21:57 33.67644 -78.92548 32 ft 15 kts 348°
2026-05-03 21:58 33.67757 -78.92574 32 ft 16 kts 348°
2026-05-03 21:58 33.67849 -78.92594 32 ft 9 kts 358°
2026-05-03 21:58 33.67903 -78.92584 32 ft 9 kts 52°
2026-05-03 21:58 33.67902 -78.92500 32 ft 12 kts 94°
2026-05-03 21:59 33.67905 -78.92394 32 ft 11 kts 81°
2026-05-03 21:59 33.67941 -78.92374 32 ft 7 kts 352°
2026-05-03 21:59 33.67977 -78.92383 32 ft 2 kts 348°
2026-05-03 21:59 33.67980 -78.92383 32 ft 0 kts 348°